Radiation Dose measured at exhaust stack monitor of Fukushima Daiichi Nuclear Power Station
Date,Time,Unit 5 6 shared exhaust cylinders,Wind Direction,Wind Velocity(m/s)
2023/09/25,00:00,3.7,north-northwest,3.3
2023/09/25,00:10,3.6,northwest,3.8
2023/09/25,00:20,3.5,northwest,4.3
2023/09/25,00:30,3.8,northwest,4.8
2023/09/25,00:40,3.6,northwest,5.0
2023/09/25,00:50,3.6,northwest,5.3
2023/09/25,01:00,3.7,northwest,5.4
2023/09/25,01:10,3.7,northwest,4.6
2023/09/25,01:20,3.5,northwest,4.7
2023/09/25,01:30,3.7,northwest,4.5
2023/09/25,01:40,3.7,northwest,4.3
2023/09/25,01:50,3.6,northwest,5.3
2023/09/25,02:00,3.7,northwest,4.9
2023/09/25,02:10,3.5,north-northwest,4.5
2023/09/25,02:20,3.5,north-northwest,4.6
2023/09/25,02:30,3.6,north-northwest,4.7
2023/09/25,02:40,3.7,north-northwest,4.5
2023/09/25,02:50,3.6,north-northwest,4.8
2023/09/25,03:00,3.6,north-northwest,4.4
2023/09/25,03:10,3.5,north-northwest,4.8
2023/09/25,03:20,3.8,north-northwest,4.3
2023/09/25,03:30,3.6,north-northwest,4.4
2023/09/25,03:40,3.6,north-northwest,4.4
2023/09/25,03:50,3.6,north-northwest,4.2
2023/09/25,04:00,3.7,north-northwest,4.4
2023/09/25,04:10,3.7,northwest,5.1
2023/09/25,04:20,3.7,north-northwest,4.9
2023/09/25,04:30,3.7,northwest,5.2
2023/09/25,04:40,3.7,northwest,5.4
2023/09/25,04:50,3.7,north-northwest,5.6
2023/09/25,05:00,3.7,northwest,5.9
2023/09/25,05:10,3.6,northwest,5.4
2023/09/25,05:20,3.8,northwest,5.3
2023/09/25,05:30,3.6,northwest,5.3
2023/09/25,05:40,3.6,northwest,5.2
2023/09/25,05:50,3.6,north-northwest,6.2
2023/09/25,06:00,3.9,northwest,5.9
2023/09/25,06:10,3.6,north-northwest,5.7
2023/09/25,06:20,3.8,north-northwest,6.0
2023/09/25,06:30,3.8,north-northwest,5.4
2023/09/25,06:40,3.8,northwest,5.7
2023/09/25,06:50,3.6,north-northwest,6.1
2023/09/25,07:00,3.7,northwest,6.1
2023/09/25,07:10,3.7,northwest,7.0
2023/09/25,07:20,3.7,north-northwest,5.4
2023/09/25,07:30,3.6,north-northwest,5.3
2023/09/25,07:40,3.7,northwest,5.7
2023/09/25,07:50,3.6,northwest,5.3
2023/09/25,08:00,3.7,north-northwest,5.1
2023/09/25,08:10,3.6,northwest,4.8
2023/09/25,08:20,3.7,northwest,5.4
2023/09/25,08:30,3.5,northwest,5.3
2023/09/25,08:40,3.5,north-northwest,5.1
2023/09/25,08:50,3.6,north-northwest,5.3
2023/09/25,09:00,3.7,north-northwest,5.5
2023/09/25,09:10,3.5,north,4.8
2023/09/25,09:20,3.6,north,4.4
2023/09/25,09:30,3.7,north-northwest,4.6
2023/09/25,09:40,3.6,north-northwest,5.2
2023/09/25,09:50,3.8,north,4.5
2023/09/25,10:00,3.7,north-northwest,6.0
2023/09/25,10:10,3.7,north,4.7
2023/09/25,10:20,3.7,north-northwest,4.5
2023/09/25,10:30,3.7,north-northwest,3.8
2023/09/25,10:40,3.7,north,4.6
2023/09/25,10:50,3.6,north-northwest,4.5
2023/09/25,11:00,3.8,north,4.3
2023/09/25,11:10,3.7,north,3.8
2023/09/25,11:20,3.6,north,3.5
2023/09/25,11:30,3.6,north-northwest,3.1
2023/09/25,11:40,3.7,north,2.3
2023/09/25,11:50,3.6,north-northeast,3.1
2023/09/25,12:00,3.8,north-northeast,4.2
2023/09/25,12:10,3.6,north,4.6
2023/09/25,12:20,3.7,north-northeast,4.3
2023/09/25,12:30,3.8,north-northeast,4.8
2023/09/25,12:40,3.6,northeast,5.1
2023/09/25,12:50,3.8,north-northeast,4.6
2023/09/25,13:00,3.5,north-northeast,4.5
2023/09/25,13:10,3.7,north-northeast,4.5
2023/09/25,13:20,3.6,north,4.5
2023/09/25,13:30,3.7,north,4.1
2023/09/25,13:40,3.6,north,4.3
2023/09/25,13:50,3.7,north,4.4
2023/09/25,14:00,3.8,north,5.2
2023/09/25,14:10,3.6,north,5.5
2023/09/25,14:20,3.7,north,4.8
2023/09/25,14:30,3.5,north-northeast,4.0
2023/09/25,14:40,3.7,north,5.4
2023/09/25,14:50,3.6,north,5.3
2023/09/25,15:00,3.7,north-northeast,5.4
2023/09/25,15:10,3.6,north-northeast,5.0
2023/09/25,15:20,3.7,north-northeast,5.0
2023/09/25,15:30,3.7,north,5.0
2023/09/25,15:40,3.7,north,4.5
2023/09/25,15:50,3.5,north,3.7
2023/09/25,16:00,3.6,north,4.4
2023/09/25,16:10,3.8,north,4.3
2023/09/25,16:20,3.7,north,3.9
2023/09/25,16:30,3.7,north,3.7
2023/09/25,16:40,3.4,north,3.8
2023/09/25,16:50,3.7,north-northeast,3.5
2023/09/25,17:00,3.4,northeast,4.6
2023/09/25,17:10,3.8,east-northeast,4.4
2023/09/25,17:20,3.8,east-northeast,3.7
2023/09/25,17:30,3.7,east-northeast,3.2
2023/09/25,17:40,3.6,east,3.1
2023/09/25,17:50,3.5,east,1.5
2023/09/25,18:00,3.7,southeast,1.2
2023/09/25,18:10,3.6,south-southwest,0.6
2023/09/25,18:20,3.7,west-northwest,1.1
2023/09/25,18:30,3.6,west-southwest,0.9
2023/09/25,18:40,3.4,west,0.8
2023/09/25,18:50,3.6,-,CALM
2023/09/25,19:00,3.6,north-northwest,1.2
2023/09/25,19:10,3.5,northwest,0.9
2023/09/25,19:20,3.5,north-northwest,1.5
2023/09/25,19:30,3.6,northwest,2.9
2023/09/25,19:40,3.5,northwest,2.6
2023/09/25,19:50,3.6,northwest,2.2
2023/09/25,20:00,3.5,north-northwest,1.7
2023/09/25,20:10,3.6,northwest,1.5
2023/09/25,20:20,3.6,northwest,2.3
2023/09/25,20:30,3.6,northwest,2.0
2023/09/25,20:40,3.7,northwest,1.1
2023/09/25,20:50,3.5,northwest,1.9
2023/09/25,21:00,3.9,northwest,2.0
2023/09/25,21:10,3.7,northwest,1.9
2023/09/25,21:20,3.6,northwest,1.4
2023/09/25,21:30,3.7,northwest,1.7
2023/09/25,21:40,3.5,northwest,2.0
2023/09/25,21:50,3.5,northwest,2.0
2023/09/25,22:00,3.6,northwest,1.2
2023/09/25,22:10,3.6,northwest,1.2
2023/09/25,22:20,3.6,north-northwest,1.2
2023/09/25,22:30,3.7,northwest,1.5
2023/09/25,22:40,3.7,north-northwest,1.4
2023/09/25,22:50,3.8,northeast,0.6
2023/09/25,23:00,3.7,north-northeast,0.9
2023/09/25,23:10,3.7,north,1.2
2023/09/25,23:20,3.7,north-northwest,1.5
2023/09/25,23:30,3.7,northwest,1.5
2023/09/25,23:40,3.7,north-northwest,2.0
2023/09/25,23:50,3.7,northwest,1.7
